| time (UTC) | temp C | wind direction | speed KPH | gust KPH | rain 1hr cm | rain 24hr cm | rain mn cm | humidity % | barometer mb |
| 20260902040011 | 18 | 129 | 4.8 | 16.1 | 0.00 | 0.71 | 0.71 | 86 | 1017.4 |
| 20260902034604 | 18 | 78 | 6.4 | 19.3 | 0.00 | 0.71 | 0.71 | 86 | 1017.3 |
| 20260902033027 | 18 | 93 | 6.4 | 16.1 | 0.00 | 0.71 | 0.71 | 85 | 1017.3 |
| 20260902031612 | 18 | 57 | 4.8 | 12.9 | 0.00 | 0.71 | 0.71 | 86 | 1017.4 |
| 20260902030043 | 18 | 97 | 6.4 | 11.3 | 0.00 | 0.71 | 0.71 | 85 | 1017.3 |
| 20260902024505 | 18 | 86 | 4.8 | 14.5 | 0.00 | 0.71 | 0.71 | 84 | 1017.1 |
| 20260902023046 | 17 | 82 | 3.2 | 11.3 | 0.00 | 0.71 | 0.71 | 80 | 1017.1 |
| 20260902021507 | 17 | 58 | 4.8 | 14.5 | 0.00 | 0.71 | 0.71 | 77 | 1016.8 |
| 20260902020039 | 17 | 78 | 4.8 | 11.3 | 0.00 | 0.71 | 0.71 | 77 | 1016.6 |
| 20260902014510 | 17 | 74 | 3.2 | 11.3 | 0.00 | 0.71 | 0.71 | 81 | 1016.7 |
| 20260902013049 | 17 | 82 | 4.8 | 9.7 | 0.00 | 0.71 | 0.71 | 86 | 1016.9 |
| 20260902011530 | 17 | 87 | 4.8 | 12.9 | 0.00 | 0.71 | 0.71 | 89 | 1016.6 |
| 20260902004524 | 17 | 114 | 4.8 | 11.3 | 0.00 | 0.71 | 0.71 | 89 | 1017.0 |
| 20260902003105 | 17 | 138 | 4.8 | 14.5 | 0.00 | 0.71 | 0.71 | 91 | 1017.0 |
| 20260902001543 | 16 | 158 | 3.2 | 11.3 | 0.00 | 0.71 | 0.71 | 91 | 1016.9 |
| 20260902000003 | 16 | 155 | 4.8 | 16.1 | 0.00 | 0.71 | 0.71 | 92 | 1016.8 |
| 20260901234546 | 16 | 171 | 3.2 | 20.9 | 0.00 | 0.71 | 0.71 | 93 | 1016.4 |
| 20260901233013 | 16 | 114 | 3.2 | 12.9 | 0.00 | 0.71 | 0.71 | 93 | 1016.4 |
| 20260901231553 | 16 | 124 | 1.6 | 11.3 | 0.00 | 0.71 | 0.71 | 93 | 1016.5 |
| 20260901230023 | 16 | 188 | 1.6 | 8.0 | 0.03 | 0.71 | 0.71 | 92 | 1016.5 |
| 20260901224619 | 16 | 133 | 3.2 | 16.1 | 0.03 | 0.71 | 0.71 | 92 | 1016.5 |
| 20260901223027 | 16 | 135 | 3.2 | 16.1 | 0.08 | 0.71 | 0.71 | 92 | 1016.6 |
| 20260901220018 | 15 | 191 | 8.0 | 22.5 | 0.13 | 0.71 | 0.71 | 92 | 1016.8 |
| 20260901214559 | 16 | 138 | 8.0 | 19.3 | 0.13 | 0.71 | 0.71 | 92 | 1016.7 |
| 20260901213125 | 16 | 134 | 3.2 | 17.7 | 0.10 | 0.66 | 0.66 | 92 | 1016.7 |
| 20260901211533 | 16 | 167 | 4.8 | 11.3 | 0.10 | 0.64 | 0.64 | 93 | 1016.6 |
| 20260901210010 | 17 | 170 | 3.2 | 9.7 | 0.05 | 0.58 | 0.58 | 92 | 1016.5 |
| 20260901204550 | 17 | 172 | 1.6 | 12.9 | 0.05 | 0.58 | 0.58 | 92 | 1016.3 |
| 20260901203023 | 16 | 94 | 3.2 | 11.3 | 0.03 | 0.56 | 0.56 | 92 | 1016.3 |
| 20260901201608 | 16 | 112 | 1.6 | 11.3 | 0.00 | 0.53 | 0.53 | 91 | 1016.2 |
| 20260901200032 | 16 | 92 | 1.6 | 14.5 | 0.00 | 0.53 | 0.53 | 89 | 1016.2 |
| 20260901194503 | 16 | 164 | 4.8 | 14.5 | 0.00 | 0.53 | 0.53 | 88 | 1016.1 |
| 20260901193038 | 16 | 186 | 4.8 | 16.1 | 0.10 | 0.53 | 0.53 | 90 | 1016.1 |
| 20260901191520 | 15 | 119 | 6.4 | 17.7 | 0.38 | 0.53 | 0.53 | 91 | 1015.8 |
| 20260901190053 | 16 | 159 | 4.8 | 20.9 | 0.43 | 0.53 | 0.53 | 93 | 1015.6 |
| 20260901184518 | 16 | 177 | 4.8 | 16.1 | 0.43 | 0.53 | 0.53 | 93 | 1015.6 |
| 20260901183103 | 16 | 181 | 4.8 | 12.9 | 0.36 | 0.43 | 0.43 | 93 | 1015.8 |
| 20260901181512 | 16 | 163 | 4.8 | 16.1 | 0.08 | 0.15 | 0.15 | 93 | 1016.3 |
| 20260901180039 | 16 | 173 | 6.4 | 16.1 | 0.03 | 0.10 | 0.10 | 92 | 1016.1 |
| 20260901174606 | 16 | 199 | 4.8 | 16.1 | 0.03 | 0.10 | 0.10 | 91 | 1016.2 |
| 20260901173035 | 16 | 124 | 1.6 | 14.5 | 0.00 | 0.08 | 0.08 | 91 | 1016.2 |
| 20260901163100 | 17 | 124 | 9.7 | 19.3 | 0.00 | 0.08 | 0.08 | 89 | 1016.2 |
| 20260901161527 | 17 | 188 | 6.4 | 24.1 | 0.00 | 0.08 | 0.08 | 87 | 1016.3 |
| 20260901160110 | 17 | 124 | 8.0 | 22.5 | 0.00 | 0.08 | 0.08 | 85 | 1016.3 |
| 20260901154608 | 18 | 124 | 8.0 | 22.5 | 0.05 | 0.08 | 0.08 | 82 | 1016.2 |
| 20260901153017 | 18 | 124 | 3.2 | 17.7 | 0.05 | 0.08 | 0.08 | 86 | 1016.3 |
| 20260901151551 | 19 | 124 | 3.2 | 11.3 | 0.05 | 0.08 | 0.08 | 87 | 1016.4 |
| 20260901150019 | 20 | 193 | 6.4 | 11.3 | 0.05 | 0.08 | 0.08 | 90 | 1016.3 |
| 20260901144559 | 20 | 193 | 1.6 | 6.4 | 0.00 | 0.03 | 0.03 | 90 | 1016.8 |
| 20260901143035 | 20 | 190 | 1.6 | 4.8 | 0.03 | 0.03 | 0.03 | 90 | 1016.6 |
| 20260901141604 | 20 | 200 | 1.6 | 11.3 | 0.03 | 0.03 | 0.03 | 90 | 1016.3 |
| 20260901140020 | 20 | 179 | 0.0 | 9.7 | 0.03 | 0.03 | 0.03 | 90 | 1016.3 |
| 20260901134600 | 20 | 187 | 1.6 | 9.7 | 0.03 | 0.03 | 0.03 | 89 | 1016.2 |
| 20260901133031 | 21 | 153 | 1.6 | 9.7 | 0.00 | 0.00 | 0.00 | 88 | 1016.2 |
| 20260901131611 | 21 | 203 | 0.0 | 6.4 | 0.00 | 0.00 | 0.00 | 87 | 1016.1 |
| 20260901130039 | 21 | 196 | 1.6 | 9.7 | 0.00 | 0.00 | 0.00 | 87 | 1015.8 |
| 20260901124515 | 21 | 198 | 1.6 | 8.0 | 0.00 | 0.00 | 0.00 | 87 | 1016.0 |
| 20260901123051 | 21 | 172 | 1.6 | 11.3 | 0.00 | 0.00 | 0.00 | 87 | 1016.0 |
| 20260901121520 | 21 | 204 | 0.0 | 12.9 | 0.00 | 0.00 | 0.00 | 88 | 1016.0 |
| 20260901120113 | 20 | 202 | 0.0 | 4.8 | 0.00 | 0.00 | 0.00 | 90 | 1016.0 |
| 20260901114535 | 20 | 210 | 0.0 | 8.0 | 0.00 | 0.00 | 0.00 | 90 | 1016.1 |
| 20260901113101 | 20 | 211 | 0.0 | 1.6 | 0.00 | 0.00 | 0.00 | 90 | 1016.0 |
| 20260901111521 | 20 | 212 | 0.0 | 0.0 | 0.00 | 0.00 | 0.00 | 90 | 1015.8 |
| 20260901110051 | 20 | 212 | 0.0 | 0.0 | 0.00 | 0.00 | 0.00 | 90 | 1015.8 |
| 20260901104515 | 20 | 212 | 0.0 | 0.0 | 0.00 | 0.00 | 0.00 | 90 | 1015.6 |
| 20260901103100 | 20 | 212 | 0.0 | 0.0 | 0.00 | 0.03 | 0.00 | 90 | 1015.6 |
| 20260901101529 | 20 | 212 | 0.0 | 0.0 | 0.00 | 0.03 | 0.00 | 90 | 1015.3 |
| 20260901100058 | 19 | 212 | 0.0 | 0.0 | 0.00 | 0.03 | 0.00 | 90 | 1015.2 |
| 20260901094525 | 19 | 212 | 0.0 | 3.2 | 0.00 | 0.03 | 0.00 | 90 | 1015.2 |
| 20260901093103 | 19 | 212 | 0.0 | 4.8 | 0.00 | 0.03 | 0.00 | 90 | 1015.2 |
| 20260901091530 | 19 | 124 | 1.6 | 4.8 | 0.00 | 0.03 | 0.00 | 90 | 1015.2 |
| 20260901090006 | 19 | 212 | 0.0 | 3.2 | 0.00 | 0.03 | 0.00 | 89 | 1015.6 |
| 20260901084546 | 19 | 212 | 0.0 | 4.8 | 0.00 | 0.03 | 0.00 | 89 | 1015.9 |
| 20260901083013 | 20 | 212 | 0.0 | 1.6 | 0.00 | 0.03 | 0.00 | 89 | 1016.1 |
| 20260901081551 | 20 | 212 | 0.0 | 4.8 | 0.00 | 0.03 | 0.00 | 89 | 1016.1 |
| 20260901080009 | 20 | 212 | 0.0 | 4.8 | 0.00 | 0.03 | 0.00 | 89 | 1016.1 |
| 20260901074544 | 19 | 124 | 1.6 | 4.8 | 0.00 | 0.03 | 0.00 | 89 | 1016.1 |
| 20260901073010 | 19 | 212 | 0.0 | 8.0 | 0.00 | 0.03 | 0.00 | 88 | 1016.2 |
| 20260901071544 | 20 | 212 | 1.6 | 6.4 | 0.00 | 0.03 | 0.00 | 87 | 1016.1 |
| 20260901070013 | 20 | 124 | 0.0 | 6.4 | 0.00 | 0.03 | 0.00 | 86 | 1016.3 |
| 20260901064553 | 20 | 124 | 0.0 | 4.8 | 0.00 | 0.03 | 0.00 | 86 | 1016.5 |
| 20260901063044 | 20 | 124 | 1.6 | 11.3 | 0.00 | 0.03 | 0.00 | 85 | 1016.4 |
| 20260901061609 | 20 | 124 | 0.0 | 4.8 | 0.00 | 0.03 | 0.00 | 84 | 1016.5 |
| 20260901060029 | 20 | 210 | 1.6 | 8.0 | 0.00 | 0.03 | 0.00 | 82 | 1016.4 |
| 20260901054608 | 20 | 231 | 4.8 | 11.3 | 0.00 | 0.03 | 0.00 | 82 | 1016.4 |
| 20260901053036 | 20 | 200 | 1.6 | 6.4 | 0.00 | 0.38 | 0.00 | 81 | 1016.5 |
| 20260901051606 | 20 | 124 | 3.2 | 8.0 | 0.00 | 0.38 | 0.00 | 80 | 1016.5 |
| 20260901050032 | 20 | 124 | 4.8 | 12.9 | 0.00 | 0.38 | 0.00 | 81 | 1016.6 |
| 20260901044603 | 20 | 241 | 1.6 | 11.3 | 0.00 | 0.38 | 0.00 | 83 | 1016.8 |
| 20260901043031 | 20 | 124 | 3.2 | 12.9 | 0.00 | 1.60 | 0.38 | 84 | 1016.9 |
| 20260901041603 | 20 | 124 | 3.2 | 8.0 | 0.00 | 1.60 | 0.38 | 84 | 1016.9 |